Location: ??
(35.5672°N, 139.6509°E)
Time: 10:17:28
(UTC+00:00)

Spot 2 Rocket - Pass Details

Date: 03 August 2024
Orbit: 753 x 769 km, 98.4° (Epoch: 14 September)

Event Time Altitude Azimuth Distance (km) Brightness Sun altitude
Exits shadow 12:33:42 53° 254° (WSW) 940 3.9 -28.4°
Maximum altitude 12:33:49 53° 260° (W) 939 4.0 -28.4°
Drops below altitude 10° 12:38:47 10° 337° (NNW) 2,306 6.9 -29.0°
Sets 12:41:09 0° 342° (NNW) 3,233 7.8 -29.3°
